Estación de Santa María

Ultimos registro cada 15 minutos 75
Estación Fecha / Hora Temperatura Humedad Lluvia Velocidad Dirección Radiación Presion
75 Santa María 05-09-2026 18:30 18,5 41,5 0 0,5 313 3,1 931,8
74 Santa María 05-09-2026 18:15 19,6 39 0 0,5 327 10,6 931,5
73 Santa María 05-09-2026 18:00 21 37,2 0 0,5 337 68,1 931,2
72 Santa María 05-09-2026 17:45 22,4 34 0 0 313 131,9 930,9
71 Santa María 05-09-2026 17:30 23 31,9 0 0,5 317 146,9 930,9
70 Santa María 05-09-2026 17:15 24,3 28,7 0 0,5 320 240,6 930,8
69 Santa María 05-09-2026 17:00 24,2 26,2 0 0,5 303 45,6 930,7
68 Santa María 05-09-2026 16:45 24,9 26,3 0 0,5 284 349,4 931
67 Santa María 05-09-2026 16:30 24,7 25,9 0 0 309 401,9 931,1
66 Santa María 05-09-2026 16:15 25,7 22,4 0 0 229 455,6 930,9
65 Santa María 05-09-2026 16:00 25,2 20,9 0 0 291 505,6 931
64 Santa María 05-09-2026 15:45 25,5 21,4 0 0 268 555,6 931
63 Santa María 05-09-2026 15:30 25,3 23,2 0 0,5 299 601,9 931
62 Santa María 05-09-2026 15:15 25,3 21,2 0 0,5 300 644,4 931,1
61 Santa María 05-09-2026 15:00 25,4 21,7 0 0 350 681,9 931,1
60 Santa María 05-09-2026 14:45 25,3 16,7 0 0 303 720,6 931,2
59 Santa María 05-09-2026 14:30 25,1 22,1 0 0 302 755,6 931,4
58 Santa María 05-09-2026 14:15 24,4 23,4 0 0 337 774,4 931,4
57 Santa María 05-09-2026 14:00 23,9 23,4 0 0,5 254 804,4 931,6
56 Santa María 05-09-2026 13:45 24,1 25,7 0 0 265 823,1 931,9
55 Santa María 05-09-2026 13:30 23,9 20,8 0 0 237 843,1 931,9
54 Santa María 05-09-2026 13:15 23,4 20,8 0 0,5 274 858,1 932,3
53 Santa María 05-09-2026 13:00 22,6 26,6 0 0,5 291 864,4 932,4
52 Santa María 05-09-2026 12:45 22,2 26,8 0 0 250 861,9 932,6
51 Santa María 05-09-2026 12:30 21,5 32,1 0 0 268 859,4 932,9
50 Santa María 05-09-2026 12:15 21,7 36,4 0 0 284 845,6 933
49 Santa María 05-09-2026 12:00 20,8 35,4 0 0 284 840,6 933,3
48 Santa María 05-09-2026 11:45 20,5 36,3 0 0 150 816,9 933,4
47 Santa María 05-09-2026 11:30 19,1 38,5 0 0,5 222 796,9 933,8
46 Santa María 05-09-2026 11:15 19,7 41 0 0 59 770,6 933,9
45 Santa María 05-09-2026 11:00 18,7 44,7 0 0 181 746,9 934,4
44 Santa María 05-09-2026 10:45 18,5 45,7 0 0 67 719,4 934,3
43 Santa María 05-09-2026 10:30 18,1 46,1 0 0 65 680,6 934,6
42 Santa María 05-09-2026 10:15 17 50 0 0 183 645,6 934,8
41 Santa María 05-09-2026 10:00 15,8 53,3 0 0 101 605,6 934,9
40 Santa María 05-09-2026 09:45 15,3 53,2 0 0 28 455,6 935,1
39 Santa María 05-09-2026 09:30 15,4 54,6 0 0 45 516,9 935,1
38 Santa María 05-09-2026 09:15 13,5 61,8 0 0 46 469,4 935,3
37 Santa María 05-09-2026 09:00 13,2 63 0 0 58 419,4 935,4
36 Santa María 05-09-2026 08:45 11,8 67,8 0 0 38 358,1 935,4
35 Santa María 05-09-2026 08:30 10 71,2 0 0 44 34,4 935,4
34 Santa María 05-09-2026 08:15 8,5 69,2 0 0 101 215,6 935,4
33 Santa María 05-09-2026 08:00 6,9 75,2 0 0 124 153,1 935,4
32 Santa María 05-09-2026 07:45 4,9 82,1 0 0 149 24,4 935,5
31 Santa María 05-09-2026 07:30 3 86,3 0 0 149 18,1 935,5
30 Santa María 05-09-2026 07:15 2,7 86,8 0 0 149 6,9 935,4
29 Santa María 05-09-2026 07:00 3,8 84,2 0 0 74 3,1 935,4
28 Santa María 05-09-2026 06:45 3,9 82,7 0 0 70 0,6 935,4
27 Santa María 05-09-2026 06:30 3,9 83,4 0 0 70 0,6 935,4
26 Santa María 05-09-2026 06:15 4,7 81,6 0 0 70 0,6 935,3
25 Santa María 05-09-2026 06:00 5 81,4 0 0 65 0,6 935,2
24 Santa María 05-09-2026 05:45 3,6 83,8 0 0 65 0,6 935,2
23 Santa María 05-09-2026 05:30 5,4 80,4 0 0 63 0,6 935,1
22 Santa María 05-09-2026 05:15 5,8 79,8 0 0 60 0,6 935,1
21 Santa María 05-09-2026 05:00 5,6 80,5 0 0 62 0,6 935,2
20 Santa María 05-09-2026 04:45 3,9 87,9 0 0 62 0,6 935,1
19 Santa María 05-09-2026 04:30 3,6 86,9 0 0 62 0,6 935,1
18 Santa María 05-09-2026 04:15 3,3 87,4 0 0 62 0,6 935,2
17 Santa María 05-09-2026 04:00 3,8 86,1 0 0 62 0,6 935,3
16 Santa María 05-09-2026 03:45 4,2 84,3 0 0 60 0,6 935,4
15 Santa María 05-09-2026 03:30 5,1 81,3 0 0 60 0,6 935,5
14 Santa María 05-09-2026 03:15 6,4 78,6 0 0 60 0,6 935,5
13 Santa María 05-09-2026 03:00 6,4 77,9 0 0 62 0,6 935,7
12 Santa María 05-09-2026 02:45 6,5 77,9 0 0 62 0,6 935,9
11 Santa María 05-09-2026 02:30 6,7 77,4 0 0 60 0,6 936,1
10 Santa María 05-09-2026 02:15 7,3 75,7 0 0 60 0,6 936,1
9 Santa María 05-09-2026 02:00 7,4 75,9 0 0 60 0,6 936,2
8 Santa María 05-09-2026 01:45 7,4 76 0 0 60 0,6 936,2
7 Santa María 05-09-2026 01:30 7,8 74,5 0 0 60 0,6 936
6 Santa María 05-09-2026 01:15 7,4 77 0 0 60 0,6 936,3
5 Santa María 05-09-2026 01:00 5,9 80,3 0 0 60 0,6 936,5
4 Santa María 05-09-2026 00:45 6 81,6 0 0 60 0,6 936,4
3 Santa María 05-09-2026 00:30 7 78,2 0 0 60 0,6 936,4
2 Santa María 05-09-2026 00:15 8,3 75,7 0 0 60 0,6 936,4
1 Santa María 05-09-2026 00:00 8,5 75,5 0 0 60 0,6 936,5